Вернуться в каталог

TIANMU-1 16

АктивенПогодаSSO
NORAD 58701·PAYLOAD·🇨🇳 China

Запущен Jan 5, 2024 с Jiuquan Satellite Launch Center

Loading…

Ближайшие Пролёты (ближайшие 24 часа)

TLE

СвежийSource: Space-Track

Эпоха: Sep 14, 2026, 23:38 UTC

1 58701U 24004B   26257.98537788  .00004743  00000-0  17871-3 0  9993
2 58701  97.4622  83.3992 0006894  45.7798 314.4006 15.27553859149488

Отслеживайте TIANMU-1 16 в реальном времени с AllMySat

Download on the App Store